Find Starlink 31402

NORAD ID: 59320 Int'l Des: 2024-057 Owner: SPXS Country: US Constellation: starlink operational
LEOCIRCULAR

現在のビュー

3D地球を読み込み中...

About Starlink 31402

Starlink 31402 (NORAD 59320) is a starlink constellation satellite (v2 mini) launched Mar 25, 2024 by SPXS of US. It operates in LEO, CIRCULAR orbit with a mass of 730.00 kg.

Starlink 31402について

説明を読み込み中...

次回通過

Passes for default location (London). Set your location on the main map for personalized predictions.

高度履歴

Loading altitude history...

軌道要素

1 59320U 24057A 26173.28770182 .00053326 00000-0 17139-2 0 9993
2 59320 42.9982 268.1992 0005788 357.0907 2.9911 15.31477965126370
Epoch: Jun 22, 2026 • Age: 24 hours

現在のステータス

高度 471.3 km
速度 7.64 km/s
衛星直下点 38.31°N, 51.44°W
打ち上げ日 Mar 25, 2024
運用期間 2.2 years
タイプ internet

技術仕様

分類 Payload
質量 730.00 kg
乾燥質量 700.00 kg
総質量 730.00 kg
長さ 0.30 m
直径 4.10 m
スパン 29.00 m
形状 Box + pan
製造者 SPXS
バスタイプ Starlink V2M
フェーズステータス In Orbit
所有者/国 SPXS/US

Most Searched